Weather History for Linden, NJ

Change the Weather History Date:

Tuesday, November 27, 2012

  Actual Average (KEWR) Record (KEWR)
Temperature  
Mean Temperature 38 °F 43 °F  
Max Temperature 42 °F 50 °F 67 °F (1959)
Min Temperature 34 °F 36 °F 12 °F (1932)
Degree Days  
Heating Degree Days 27 22  
Month to date heating degree days 478  
Since 1 July heating degree days 799  
Cooling Degree Days 0 0  
Month to date cooling degree days 0  
Year to date cooling degree days 1191  
Moisture  
Dew Point 32 °F    
Average Humidity 80    
Maximum Humidity 95    
Minimum Humidity 51    
Precipitation  
Precipitation 0.39 in 0.13 in 1.91 in (2013)
Month to date precipitation 3.25  
Year to date precipitation 42.04  
Snow  
Snow 0.00 in 0.00 in 3.00 in (1938)
Month to date snowfall 0.3  
Since 1 July snowfall 0.3  
Snow Depth -    
Sea Level Pressure  
Sea Level Pressure 30.25 in    
Wind  
Wind Speed 3 mph (NNE)    
Max Wind Speed 8 mph    
Max Gust Speed -    
Visibility 7 miles    
Events Rain , Snow    
T = Trace of Precipitation, MM = Missing Value Source: NWS Daily Summary

Daily Weather History Graph

Daily Weather History Graph

Search for Another Location

Airport:

Trip Planner

Search our weather history database for the weather conditions in past years. The results will help you decide how hot, cold, wet, or windy it might be!

Date:

Astronomy

Nov. 27, 2012 Rise Set
Actual Time 6:57 AM EST 4:31 PM EST
Civil Twilight 6:27 AM EST 5:01 PM EST
Nautical Twilight 5:53 AM EST 5:35 PM EST
Astronomical Twilight 5:20 AM EST 6:08 PM EST
Moon 4:01 PM EST (11/27) 6:00 AM EST (11/27)
Length of Visible Light 10h 34m
Length of Day
9h 33m
Waxing Gibbous, 99% of the Moon is Illuminated
Nov 27
Waxing Gibbous
Nov 28
Full
Dec 6
Last Quarter
Dec 13
New
Dec 20
First Quarter

Hourly Weather History & Observations

Time (EST) Temp. Windchill Dew Point Humidity Pressure Visibility Wind Dir Wind Speed Gust Speed Precip Events Conditions
12:15 AM 35.4 °F - 25.3 °F 67% 30.26 in 10.0 mi Calm Calm - N/A   Mostly Cloudy
12:35 AM 36.1 °F - 25.5 °F 65% 30.26 in 10.0 mi Calm Calm - N/A   Mostly Cloudy
12:55 AM 36.7 °F - 25.7 °F 64% 30.26 in 10.0 mi Calm Calm - N/A   Mostly Cloudy
1:15 AM 36.5 °F - 26.4 °F 67% 30.26 in 10.0 mi Calm Calm - N/A   Overcast
1:35 AM 37.6 °F - 27.1 °F 66% 30.26 in 10.0 mi Calm Calm - N/A   Overcast
1:55 AM 38.3 °F - 26.6 °F 63% 30.26 in 10.0 mi Calm Calm - N/A   Overcast
2:15 AM 38.8 °F - 25.7 °F 59% 30.27 in 10.0 mi Calm Calm - N/A   Overcast
2:55 AM 38.3 °F - 27.0 °F 64% 30.28 in 10.0 mi Calm Calm - N/A   Overcast
3:15 AM 38.8 °F - 25.3 °F 58% 30.27 in 10.0 mi Calm Calm - N/A   Overcast
3:35 AM 39.2 °F - 25.9 °F 59% 30.27 in 10.0 mi Calm Calm - N/A   Overcast
3:55 AM 39.2 °F - 26.4 °F 60% 30.26 in 10.0 mi Calm Calm - N/A   Overcast
4:15 AM 38.7 °F - 27.5 °F 64% 30.26 in 10.0 mi Calm Calm - N/A   Overcast
4:35 AM 40.3 °F 37.1 °F 26.1 °F 57% 30.26 in 10.0 mi North 4.6 mph - N/A   Overcast
4:55 AM 40.5 °F - 25.7 °F 56% 30.26 in 10.0 mi Calm Calm - N/A   Overcast
5:15 AM 41.0 °F - 25.3 °F 54% 30.27 in 10.0 mi Calm Calm - N/A   Overcast
5:35 AM 41.4 °F - 25.2 °F 53% 30.26 in 10.0 mi Calm Calm - N/A   Overcast
5:55 AM 41.4 °F - 25.3 °F 53% 30.26 in 10.0 mi Calm Calm - N/A   Overcast
6:15 AM 41.9 °F - 25.2 °F 52% 30.28 in 10.0 mi Calm Calm - N/A   Overcast
6:35 AM 41.9 °F - 25.5 °F 52% 30.29 in 10.0 mi Calm Calm - N/A   Overcast
6:55 AM 42.1 °F 39.2 °F 25.2 °F 51% 30.28 in 10.0 mi NNE 4.6 mph - N/A   Overcast
7:15 AM 42.3 °F - 26.2 °F 53% 30.29 in 10.0 mi Calm Calm - N/A   Light Drizzle
7:35 AM 42.3 °F 39.4 °F 29.8 °F 61% 30.30 in 10.0 mi ENE 4.6 mph - N/A   Overcast
7:55 AM 42.1 °F 39.2 °F 31.3 °F 66% 30.29 in 10.0 mi ENE 4.6 mph - N/A   Drizzle
8:15 AM 41.0 °F 39.0 °F 32.9 °F 73% 30.30 in 10.0 mi NE 3.5 mph - N/A   Drizzle
8:35 AM 41.2 °F 38.2 °F 33.1 °F 73% 30.29 in 10.0 mi East 4.6 mph - N/A   Drizzle
8:55 AM 40.5 °F 36.5 °F 33.4 °F 76% 30.29 in 7.0 mi East 5.8 mph - N/A Rain Light Rain
9:15 AM 40.1 °F 36.1 °F 34.2 °F 79% 30.29 in 7.0 mi ENE 5.8 mph - N/A Rain Rain
9:35 AM 39.2 °F 35.9 °F 34.7 °F 84% 30.28 in 5.0 mi NNE 4.6 mph - N/A   Drizzle
9:55 AM 38.7 °F 35.2 °F 35.1 °F 87% 30.28 in 4.0 mi NNE 4.6 mph - 0.02 in Rain Light Rain
10:35 AM 37.9 °F 33.5 °F 35.2 °F 90% 30.28 in 4.0 mi NE 5.8 mph - 0.03 in Rain Light Rain
10:55 AM 37.0 °F 33.3 °F 34.5 °F 91% 30.28 in 2.5 mi NNE 4.6 mph - 0.06 in Rain Heavy Rain
11:15 AM 35.8 °F 31.9 °F 33.6 °F 92% 30.28 in 1.5 mi North 4.6 mph - 0.02 in Rain Light Rain
11:35 AM 35.1 °F 32.2 °F 33.3 °F 93% 30.28 in 1.0 mi North 3.5 mph - 0.04 in Snow Light Snow
11:55 AM 34.7 °F 31.8 °F 33.1 °F 94% 30.27 in 1.0 mi North 3.5 mph - 0.08 in Snow Light Snow
12:15 PM 34.5 °F - 32.9 °F 94% 30.26 in 0.8 mi Calm Calm - 0.03 in Snow Light Snow
12:35 PM 34.5 °F 31.6 °F 33.1 °F 94% 30.25 in 0.8 mi North 3.5 mph - 0.05 in   Overcast
12:55 PM 34.9 °F 32.0 °F 33.4 °F 94% 30.24 in 1.5 mi NNE 3.5 mph - 0.08 in Rain Rain
1:15 PM 35.2 °F 30.3 °F 33.8 °F 94% 30.23 in 1.8 mi North 5.8 mph - 0.02 in Rain Light Rain
1:35 PM 35.6 °F 32.8 °F 34.0 °F 94% 30.22 in 3.0 mi North 3.5 mph - 0.03 in Rain Light Rain
1:55 PM 35.8 °F 30.9 °F 34.5 °F 95% 30.22 in 3.0 mi North 5.8 mph - 0.04 in Rain Light Rain
2:15 PM 36.0 °F 31.1 °F 34.7 °F 95% 30.21 in 3.0 mi NNE 5.8 mph - 0.02 in Rain Light Rain
2:35 PM 36.0 °F 31.1 °F 34.5 °F 94% 30.22 in 2.5 mi North 5.8 mph - 0.03 in Rain Light Rain
2:55 PM 35.6 °F 32.8 °F 33.8 °F 93% 30.22 in 2.5 mi North 3.5 mph - 0.06 in Rain Rain
3:15 PM 35.1 °F 32.2 °F 33.8 °F 95% 30.22 in 2.5 mi North 3.5 mph - 0.02 in Rain Rain
3:35 PM 35.2 °F 31.2 °F 33.8 °F 94% 30.22 in 2.5 mi North 4.6 mph - 0.02 in Rain Light Rain
3:55 PM 35.1 °F 32.2 °F 33.8 °F 95% 30.22 in 3.0 mi North 3.5 mph - 0.04 in Snow Light Snow
4:15 PM 35.6 °F 31.7 °F 34.0 °F 94% 30.21 in 4.0 mi NNE 4.6 mph - N/A Rain Light Rain
4:35 PM 35.6 °F 31.7 °F 34.2 °F 94% 30.21 in 5.0 mi North 4.6 mph - 0.01 in Rain Light Rain
4:55 PM 36.0 °F 33.3 °F 34.7 °F 95% 30.21 in 7.0 mi North 3.5 mph - 0.01 in Rain Light Rain
5:15 PM 36.1 °F 31.4 °F 34.7 °F 94% 30.22 in 7.0 mi North 5.8 mph - N/A Rain Light Rain
5:35 PM 36.5 °F 31.8 °F 34.7 °F 93% 30.21 in 7.0 mi NNE 5.8 mph - N/A   Light Drizzle
5:55 PM 36.5 °F 31.0 °F 34.9 °F 94% 30.21 in 7.0 mi North 6.9 mph - N/A   Light Drizzle
6:15 PM 36.7 °F 30.5 °F 35.1 °F 94% 30.21 in 7.0 mi North 8.1 mph - N/A   Light Drizzle
6:35 PM 36.9 °F 31.4 °F 35.1 °F 93% 30.21 in 7.0 mi North 6.9 mph - N/A   Overcast
6:55 PM 37.0 °F 31.0 °F 35.1 °F 93% 30.22 in 7.0 mi North 8.1 mph - N/A   Overcast
7:15 PM 37.4 °F 32.8 °F 35.2 °F 92% 30.22 in 7.0 mi North 5.8 mph - N/A   Overcast
7:35 PM 37.4 °F 32.1 °F 35.2 °F 92% 30.22 in 7.0 mi NNE 6.9 mph - N/A   Overcast
7:55 PM 37.6 °F 32.3 °F 35.6 °F 93% 30.23 in 7.0 mi North 6.9 mph - N/A   Overcast
8:15 PM 37.6 °F 32.3 °F 35.2 °F 91% 30.23 in 7.0 mi North 6.9 mph - N/A   Overcast
8:35 PM 37.8 °F 31.8 °F 35.6 °F 92% 30.24 in 7.0 mi North 8.1 mph - N/A   Overcast
8:55 PM 37.8 °F 33.3 °F 35.2 °F 91% 30.23 in 7.0 mi North 5.8 mph - N/A   Overcast
9:15 PM 37.9 °F 34.4 °F 35.2 °F 90% 30.23 in 7.0 mi North 4.6 mph - N/A   Overcast
9:35 PM 37.9 °F 32.1 °F 35.1 °F 89% 30.22 in 10.0 mi North 8.1 mph - N/A   Overcast
9:55 PM 38.3 °F 33.9 °F 35.1 °F 88% 30.23 in 10.0 mi North 5.8 mph - N/A   Overcast
10:15 PM 38.3 °F 32.5 °F 34.9 °F 87% 30.23 in 10.0 mi North 8.1 mph - N/A   Overcast
10:35 PM 38.3 °F 33.2 °F 34.7 °F 87% 30.22 in 10.0 mi North 6.9 mph - N/A   Overcast
10:55 PM 38.3 °F 33.2 °F 34.5 °F 86% 30.23 in 10.0 mi North 6.9 mph - N/A   Overcast
11:15 PM 38.3 °F 33.2 °F 34.3 °F 86% 30.23 in 10.0 mi North 6.9 mph - N/A   Overcast
11:35 PM 38.3 °F 33.9 °F 34.2 °F 85% 30.23 in 10.0 mi NNW 5.8 mph - N/A   Overcast
11:55 PM 38.3 °F 33.9 °F 33.8 °F 84% 30.24 in 10.0 mi NNW 5.8 mph - N/A   Overcast